Starlink 31346

operational
NORAD ID: 58943 Int'l Des: 2024-027 Owner: SPXS Country: US Constellation: starlink
LEOCIRCULAR

Starlink 31346について

説明を読み込み中...

リアルタイム位置

3D地球を読み込み中...

次回通過

高度履歴

Altitude vs Time

uPlot chart will show altitude changes over time

軌道要素

1 58943U 24027N 25260.63046806 -.00001797 00000-0 -48565-4 0 9990
2 58943 53.1624 31.2423 0001131 61.1463 298.9652 15.30200491 90863
Epoch: Sep 17, 2025 • Age: 25 hours

現在のステータス

高度 487.4 km
速度 7.62 km/s
衛星直下点 -36.96°S, 114.49°E
打ち上げ日 Feb 10, 2024
運用期間 1.6 years
タイプ internet

技術仕様

分類 Payload
質量 730.00 kg
乾燥質量 700.00 kg
総質量 730.00 kg
長さ 0.30 m
直径 4.10 m
スパン 29.00 m
形状 Box + pan
製造者 SPXS
バスタイプ Starlink V2M
フェーズステータス In Orbit
所有者/国 SPXS/US

大規模コンステレーション

Loading constellations...